| time (UTC) | temp C | wind direction | speed KPH | gust KPH | rain 1hr cm | rain 24hr cm | rain mn cm | humidity % | barometer mb |
| 20260506151006 | 5 | 290 | 4.8 | 9.7 | 0.00 | 0.00 | 0.00 | 50 | 1016.0 |
| 20260506150502 | 5 | 254 | 1.6 | 14.5 | 0.00 | 0.00 | 0.00 | 49 | 1016.1 |
| 20260506145959 | 5 | 218 | 4.8 | 9.7 | 0.00 | 0.00 | 0.00 | 51 | 1015.9 |
| 20260506145456 | 5 | 292 | 1.6 | 9.7 | 0.00 | 0.00 | 0.00 | 50 | 1015.7 |
| 20260506144954 | 5 | 289 | 6.4 | 11.3 | 0.00 | 0.00 | 0.00 | 50 | 1016.0 |
| 20260506144450 | 5 | 247 | 8.0 | 11.3 | 0.00 | 0.00 | 0.00 | 51 | 1016.1 |
| 20260506143948 | 5 | 265 | 1.6 | 9.7 | 0.00 | 0.00 | 0.00 | 52 | 1016.1 |
| 20260506143445 | 5 | 248 | 6.4 | 9.7 | 0.00 | 0.00 | 0.00 | 52 | 1016.1 |
| 20260506142944 | 5 | 216 | 8.0 | 11.3 | 0.00 | 0.00 | 0.00 | 51 | 1015.9 |
| 20260506142441 | 5 | 278 | 3.2 | 11.3 | 0.00 | 0.00 | 0.00 | 53 | 1015.8 |
| 20260506141939 | 5 | 253 | 3.2 | 9.7 | 0.00 | 0.00 | 0.00 | 52 | 1015.9 |
| 20260506141436 | 5 | 300 | 4.8 | 4.8 | 0.00 | 0.00 | 0.00 | 53 | 1015.9 |
| 20260506140935 | 5 | 266 | 4.8 | 12.9 | 0.00 | 0.00 | 0.00 | 53 | 1015.9 |
| 20260506140431 | 5 | 210 | 3.2 | 9.7 | 0.00 | 0.00 | 0.00 | 53 | 1015.8 |
| 20260506135928 | 5 | 260 | 3.2 | 4.8 | 0.00 | 0.00 | 0.00 | 53 | 1015.8 |
| 20260506135425 | 5 | 309 | 6.4 | 8.0 | 0.00 | 0.00 | 0.00 | 53 | 1015.7 |
| 20260506134922 | 5 | 278 | 8.0 | 12.9 | 0.00 | 0.00 | 0.00 | 53 | 1015.7 |
| 20260506134418 | 5 | 235 | 3.2 | 4.8 | 0.00 | 0.00 | 0.00 | 56 | 1015.7 |
| 20260506133915 | 4 | 282 | 4.8 | 8.0 | 0.00 | 0.00 | 0.00 | 56 | 1015.9 |
| 20260506133411 | 4 | 263 | 6.4 | 11.3 | 0.00 | 0.00 | 0.00 | 56 | 1015.8 |
| 20260506132908 | 4 | 250 | 3.2 | 9.7 | 0.00 | 0.00 | 0.00 | 57 | 1015.6 |
| 20260506132405 | 4 | 254 | 4.8 | 12.9 | 0.00 | 0.00 | 0.00 | 56 | 1015.5 |
| 20260506131904 | 4 | 260 | 6.4 | 8.0 | 0.00 | 0.00 | 0.00 | 57 | 1015.7 |
| 20260506131359 | 3 | 292 | 1.6 | 8.0 | 0.00 | 0.00 | 0.00 | 57 | 1015.6 |
| 20260506130856 | 3 | 248 | 1.6 | 4.8 | 0.00 | 0.00 | 0.00 | 58 | 1015.4 |
| 20260506130353 | 3 | 282 | 8.0 | 11.3 | 0.00 | 0.00 | 0.00 | 59 | 1015.5 |
| 20260506125851 | 3 | 306 | 3.2 | 8.0 | 0.00 | 0.00 | 0.00 | 60 | 1015.2 |
| 20260506125349 | 3 | 329 | 0.0 | 3.2 | 0.00 | 0.00 | 0.00 | 61 | 1015.3 |
| 20260506124847 | 3 | 228 | 1.6 | 4.8 | 0.00 | 0.00 | 0.00 | 61 | 1015.1 |
| 20260506124343 | 3 | 324 | 3.2 | 8.0 | 0.00 | 0.00 | 0.00 | 61 | 1015.2 |
| 20260506123841 | 3 | 299 | 3.2 | 3.2 | 0.00 | 0.00 | 0.00 | 63 | 1015.1 |
| 20260506123340 | 2 | 270 | 1.6 | 4.8 | 0.00 | 0.00 | 0.00 | 64 | 1014.9 |
| 20260506122836 | 2 | 275 | 1.6 | 3.2 | 0.00 | 0.00 | 0.00 | 64 | 1015.1 |
| 20260506122333 | 2 | 254 | 3.2 | 4.8 | 0.00 | 0.00 | 0.00 | 66 | 1015.1 |
| 20260506121832 | 1 | 336 | 4.8 | 4.8 | 0.00 | 0.00 | 0.00 | 69 | 1015.0 |
| 20260506121328 | 1 | 276 | 0.0 | 1.6 | 0.00 | 0.00 | 0.00 | 72 | 1014.9 |
| 20260506120825 | 0 | 258 | 0.0 | 1.6 | 0.00 | 0.00 | 0.00 | 74 | 1014.8 |
| 20260506120323 | 0 | 230 | 0.0 | 1.6 | 0.00 | 0.00 | 0.00 | 75 | 1014.8 |
| 20260506115820 | 0 | 230 | 0.0 | 0.0 | 0.00 | 0.00 | 0.00 | 76 | 1014.9 |
| 20260506115318 | 0 | 230 | 0.0 | 1.6 | 0.00 | 0.00 | 0.00 | 77 | 1014.8 |
| 20260506114816 | -1 | 230 | 0.0 | 0.0 | 0.00 | 0.00 | 0.00 | 78 | 1014.5 |
| 20260506114314 | -1 | 230 | 0.0 | 1.6 | 0.00 | 0.00 | 0.00 | 78 | 1014.7 |
| 20260506113812 | -1 | 230 | 0.0 | 1.6 | 0.00 | 0.00 | 0.00 | 78 | 1014.4 |
| 20260506113309 | -1 | 230 | 0.0 | 0.0 | 0.00 | 0.00 | 0.00 | 78 | 1014.5 |
| 20260506112806 | -1 | 230 | 0.0 | 0.0 | 0.00 | 0.00 | 0.00 | 78 | 1014.5 |
| 20260506112305 | -1 | 230 | 0.0 | 1.6 | 0.00 | 0.00 | 0.00 | 78 | 1014.5 |
| 20260506111800 | -1 | 231 | 0.0 | 1.6 | 0.00 | 0.00 | 0.00 | 78 | 1014.5 |
| 20260506111258 | -1 | 231 | 0.0 | 0.0 | 0.00 | 0.00 | 0.00 | 78 | 1014.5 |
| 20260506110755 | -1 | 231 | 0.0 | 1.6 | 0.00 | 0.00 | 0.00 | 79 | 1014.4 |
| 20260506110253 | -1 | 231 | 0.0 | 0.0 | 0.00 | 0.00 | 0.00 | 79 | 1014.4 |
| 20260506105749 | -1 | 231 | 0.0 | 1.6 | 0.00 | 0.00 | 0.00 | 79 | 1014.4 |
| 20260506105246 | -1 | 231 | 0.0 | 1.6 | 0.00 | 0.00 | 0.00 | 79 | 1014.4 |
| 20260506104744 | -1 | 231 | 0.0 | 0.0 | 0.00 | 0.00 | 0.00 | 80 | 1014.5 |
| 20260506104241 | -1 | 231 | 0.0 | 1.6 | 0.00 | 0.00 | 0.00 | 80 | 1014.3 |
| 20260506103738 | -1 | 231 | 0.0 | 1.6 | 0.00 | 0.00 | 0.00 | 81 | 1014.2 |
| 20260506103235 | -1 | 232 | 0.0 | 1.6 | 0.00 | 0.00 | 0.00 | 81 | 1014.3 |
| 20260506102733 | -1 | 249 | 1.6 | 1.6 | 0.00 | 0.00 | 0.00 | 81 | 1014.0 |
| 20260506102231 | -1 | 255 | 0.0 | 0.0 | 0.00 | 0.00 | 0.00 | 80 | 1014.1 |
| 20260506101728 | -1 | 255 | 1.6 | 1.6 | 0.00 | 0.00 | 0.00 | 80 | 1014.1 |
| 20260506101224 | 0 | 255 | 0.0 | 1.6 | 0.00 | 0.00 | 0.00 | 80 | 1014.0 |
| 20260506100722 | 0 | 255 | 0.0 | 1.6 | 0.00 | 0.00 | 0.00 | 79 | 1013.9 |
| 20260506100220 | 0 | 256 | 0.0 | 1.6 | 0.00 | 0.00 | 0.00 | 78 | 1014.0 |
| 20260506095718 | 0 | 256 | 1.6 | 1.6 | 0.00 | 0.00 | 0.00 | 78 | 1014.2 |
| 20260506095215 | 0 | 256 | 1.6 | 1.6 | 0.00 | 0.00 | 0.00 | 77 | 1013.9 |
| 20260506094712 | 0 | 256 | 1.6 | 1.6 | 0.00 | 0.00 | 0.00 | 77 | 1014.1 |
| 20260506094210 | 0 | 257 | 0.0 | 1.6 | 0.00 | 0.00 | 0.00 | 76 | 1014.1 |
| 20260506093709 | 0 | 257 | 0.0 | 0.0 | 0.00 | 0.00 | 0.00 | 76 | 1014.1 |
| 20260506093205 | 0 | 257 | 0.0 | 1.6 | 0.00 | 0.00 | 0.00 | 75 | 1014.0 |
| 20260506092703 | 0 | 257 | 0.0 | 1.6 | 0.00 | 0.00 | 0.00 | 75 | 1014.1 |
| 20260506092200 | 0 | 257 | 0.0 | 1.6 | 0.00 | 0.00 | 0.00 | 75 | 1014.0 |
| 20260506091658 | 0 | 257 | 0.0 | 1.6 | 0.00 | 0.00 | 0.00 | 74 | 1014.0 |
| 20260506091155 | 0 | 257 | 0.0 | 0.0 | 0.00 | 0.00 | 0.00 | 74 | 1014.0 |
| 20260506090653 | 0 | 257 | 0.0 | 1.6 | 0.00 | 0.00 | 0.00 | 74 | 1014.1 |
| 20260506090149 | 0 | 257 | 0.0 | 0.0 | 0.00 | 0.00 | 0.00 | 73 | 1013.8 |
| 20260506085646 | 0 | 257 | 0.0 | 1.6 | 0.00 | 0.00 | 0.00 | 73 | 1014.1 |
| 20260506085142 | 0 | 257 | 0.0 | 1.6 | 0.00 | 0.00 | 0.00 | 72 | 1014.0 |
| 20260506084639 | 0 | 258 | 0.0 | 0.0 | 0.00 | 0.00 | 0.00 | 72 | 1013.7 |
| 20260506084136 | 0 | 258 | 0.0 | 0.0 | 0.00 | 0.00 | 0.00 | 71 | 1013.5 |
| 20260506083633 | 1 | 257 | 0.0 | 0.0 | 0.00 | 0.00 | 0.00 | 71 | 1013.7 |
| 20260506083130 | 1 | 257 | 0.0 | 0.0 | 0.00 | 0.00 | 0.00 | 71 | 1013.8 |
| 20260506082627 | 1 | 257 | 0.0 | 0.0 | 0.00 | 0.00 | 0.00 | 71 | 1014.0 |
| 20260506082122 | 1 | 257 | 0.0 | 1.6 | 0.00 | 0.00 | 0.00 | 70 | 1014.0 |
| 20260506081621 | 1 | 281 | 0.0 | 0.0 | 0.00 | 0.00 | 0.00 | 70 | 1014.0 |
| 20260506081118 | 1 | 281 | 0.0 | 1.6 | 0.00 | 0.00 | 0.00 | 70 | 1013.9 |
| 20260506080616 | 1 | 281 | 0.0 | 0.0 | 0.00 | 0.00 | 0.00 | 69 | 1013.8 |
| 20260506080112 | 1 | 281 | 0.0 | 0.0 | 0.00 | 0.00 | 0.00 | 68 | 1013.8 |
| 20260506073056 | 2 | 280 | 0.0 | 0.0 | 0.00 | 0.00 | 0.00 | 64 | 1013.5 |
| 20260506072553 | 2 | 281 | 0.0 | 0.0 | 0.00 | 0.00 | 0.00 | 63 | 1013.4 |
| 20260506072051 | 2 | 282 | 0.0 | 1.6 | 0.00 | 0.00 | 0.00 | 62 | 1013.5 |
| 20260506071548 | 2 | 288 | 0.0 | 1.6 | 0.00 | 0.00 | 0.00 | 62 | 1013.5 |
| 20260506071045 | 3 | 337 | 3.2 | 4.8 | 0.00 | 0.00 | 0.00 | 61 | 1013.4 |
| 20260506070543 | 3 | 294 | 3.2 | 3.2 | 0.00 | 0.00 | 0.00 | 60 | 1013.5 |
| 20260506062017 | 3 | 284 | 0.0 | 1.6 | 0.00 | 0.00 | 0.00 | 58 | 1013.2 |
| 20260506061512 | 3 | 302 | 3.2 | 3.2 | 0.00 | 0.00 | 0.00 | 58 | 1013.1 |
| 20260506061010 | 3 | 298 | 1.6 | 8.0 | 0.00 | 0.00 | 0.00 | 57 | 1013.3 |
| 20260506060509 | 3 | 274 | 0.0 | 4.8 | 0.00 | 0.00 | 0.00 | 57 | 1013.2 |
| 20260506050937 | 4 | 273 | 3.2 | 3.2 | 0.00 | 0.00 | 0.00 | 53 | 1012.8 |
| 20260506050435 | 5 | 247 | 1.6 | 3.2 | 0.00 | 0.00 | 0.00 | 53 | 1012.8 |
| 20260506044925 | 5 | 300 | 1.6 | 4.8 | 0.00 | 0.00 | 0.00 | 54 | 1012.5 |
| 20260506044424 | 5 | 265 | 0.0 | 3.2 | 0.00 | 0.00 | 0.00 | 54 | 1012.5 |
| 20260506043920 | 5 | 276 | 1.6 | 3.2 | 0.00 | 0.00 | 0.00 | 53 | 1012.5 |
| 20260506043417 | 5 | 285 | 1.6 | 3.2 | 0.00 | 0.00 | 0.00 | 53 | 1012.4 |
| 20260506042915 | 5 | 288 | 1.6 | 3.2 | 0.00 | 0.00 | 0.00 | 53 | 1012.4 |
| 20260506042415 | 5 | 339 | 6.4 | 9.7 | 0.00 | 0.00 | 0.00 | 52 | 1012.5 |
| 20260506041912 | 5 | 306 | 3.2 | 8.0 | 0.00 | 0.00 | 0.00 | 52 | 1012.3 |
| 20260506041410 | 5 | 321 | 8.0 | 11.3 | 0.00 | 0.00 | 0.00 | 52 | 1012.4 |
| 20260506040906 | 5 | 260 | 1.6 | 3.2 | 0.00 | 0.00 | 0.00 | 53 | 1012.4 |
| 20260506040404 | 5 | 318 | 6.4 | 9.7 | 0.00 | 0.00 | 0.00 | 51 | 1012.4 |
| 20260506035900 | 5 | 315 | 3.2 | 4.8 | 0.00 | 0.00 | 0.00 | 51 | 1012.2 |
| 20260506035357 | 6 | 46 | 3.2 | 11.3 | 0.00 | 0.00 | 0.00 | 51 | 1012.3 |
| 20260506034854 | 6 | 311 | 14.5 | 16.1 | 0.00 | 0.00 | 0.00 | 51 | 1012.3 |
| 20260506034351 | 6 | 307 | 8.0 | 16.1 | 0.00 | 0.00 | 0.00 | 50 | 1012.5 |
| 20260506033848 | 6 | 301 | 6.4 | 16.1 | 0.00 | 0.00 | 0.00 | 50 | 1012.4 |
| 20260506033345 | 6 | 335 | 3.2 | 8.0 | 0.00 | 0.00 | 0.00 | 50 | 1012.1 |
| 20260506032842 | 6 | 326 | 11.3 | 12.9 | 0.00 | 0.00 | 0.00 | 49 | 1012.3 |
| 20260506032339 | 6 | 336 | 6.4 | 12.9 | 0.00 | 0.00 | 0.00 | 49 | 1012.3 |
| 20260506031836 | 6 | 311 | 6.4 | 8.0 | 0.00 | 0.00 | 0.00 | 48 | 1012.2 |
| 20260506031333 | 6 | 290 | 3.2 | 11.3 | 0.00 | 0.00 | 0.00 | 49 | 1012.1 |
| 20260506030831 | 6 | 336 | 6.4 | 9.7 | 0.00 | 0.00 | 0.00 | 48 | 1012.0 |
| 20260506030329 | 6 | 233 | 1.6 | 4.8 | 0.00 | 0.00 | 0.00 | 48 | 1011.9 |
| 20260506025825 | 6 | 320 | 1.6 | 8.0 | 0.00 | 0.00 | 0.00 | 48 | 1011.9 |
| 20260506025321 | 7 | 282 | 0.0 | 1.6 | 0.00 | 0.00 | 0.00 | 47 | 1011.9 |
| 20260506024819 | 7 | 290 | 1.6 | 8.0 | 0.00 | 0.00 | 0.00 | 46 | 1011.7 |
| 20260506024316 | 7 | 287 | 1.6 | 4.8 | 0.00 | 0.00 | 0.00 | 45 | 1011.8 |
| 20260506023812 | 7 | 275 | 1.6 | 3.2 | 0.00 | 0.00 | 0.00 | 45 | 1011.6 |
| 20260506023309 | 7 | 305 | 6.4 | 9.7 | 0.00 | 0.00 | 0.00 | 45 | 1011.4 |
| 20260506022805 | 7 | 297 | 4.8 | 8.0 | 0.00 | 0.00 | 0.00 | 44 | 1011.3 |
| 20260506022305 | 7 | 301 | 1.6 | 8.0 | 0.00 | 0.00 | 0.00 | 44 | 1011.3 |
| 20260506021801 | 7 | 254 | 1.6 | 8.0 | 0.00 | 0.00 | 0.00 | 44 | 1011.3 |
| 20260506021258 | 7 | 310 | 3.2 | 8.0 | 0.00 | 0.00 | 0.00 | 44 | 1011.2 |
| 20260506020754 | 7 | 248 | 3.2 | 8.0 | 0.00 | 0.00 | 0.00 | 44 | 1010.9 |
| 20260506020252 | 7 | 240 | 3.2 | 4.8 | 0.00 | 0.00 | 0.00 | 43 | 1011.2 |
| 20260506015750 | 8 | 285 | 4.8 | 9.7 | 0.00 | 0.00 | 0.00 | 43 | 1010.9 |
| 20260506015247 | 8 | 294 | 1.6 | 4.8 | 0.00 | 0.00 | 0.00 | 42 | 1010.8 |
| 20260506014744 | 8 | 307 | 3.2 | 12.9 | 0.00 | 0.00 | 0.00 | 41 | 1010.8 |
| 20260506014240 | 8 | 306 | 8.0 | 11.3 | 0.00 | 0.00 | 0.00 | 42 | 1010.5 |
| 20260506013737 | 8 | 249 | 3.2 | 3.2 | 0.00 | 0.00 | 0.00 | 42 | 1010.5 |
| 20260506013235 | 8 | 296 | 3.2 | 8.0 | 0.00 | 0.00 | 0.00 | 41 | 1010.5 |
| 20260506012731 | 8 | 341 | 3.2 | 9.7 | 0.00 | 0.00 | 0.00 | 41 | 1010.6 |
| 20260506012228 | 8 | 277 | 1.6 | 8.0 | 0.00 | 0.00 | 0.00 | 41 | 1010.6 |
| 20260506011725 | 8 | 267 | 8.0 | 11.3 | 0.00 | 0.00 | 0.00 | 40 | 1010.4 |
| 20260506011221 | 8 | 309 | 4.8 | 8.0 | 0.00 | 0.00 | 0.00 | 40 | 1010.4 |
| 20260506010720 | 8 | 290 | 3.2 | 12.9 | 0.00 | 0.00 | 0.00 | 39 | 1010.4 |
| 20260506010217 | 8 | 241 | 6.4 | 8.0 | 0.00 | 0.00 | 0.00 | 40 | 1010.3 |
| 20260506005714 | 8 | 225 | 8.0 | 16.1 | 0.00 | 0.00 | 0.00 | 40 | 1010.4 |
| 20260506005211 | 8 | 256 | 3.2 | 8.0 | 0.00 | 0.00 | 0.00 | 40 | 1010.4 |
| 20260506004707 | 8 | 274 | 4.8 | 11.3 | 0.00 | 0.00 | 0.00 | 39 | 1010.2 |
| 20260506004205 | 8 | 292 | 3.2 | 4.8 | 0.00 | 0.00 | 0.00 | 39 | 1010.1 |
| 20260506003700 | 8 | 272 | 3.2 | 4.8 | 0.00 | 0.00 | 0.00 | 39 | 1010.2 |
| 20260506003157 | 8 | 273 | 3.2 | 8.0 | 0.00 | 0.00 | 0.00 | 39 | 1010.0 |
| 20260506002653 | 9 | 288 | 4.8 | 11.3 | 0.00 | 0.00 | 0.00 | 38 | 1010.4 |
| 20260506002149 | 9 | 272 | 3.2 | 9.7 | 0.00 | 0.00 | 0.00 | 39 | 1010.1 |
| 20260506001645 | 9 | 251 | 0.0 | 4.8 | 0.00 | 0.00 | 0.00 | 40 | 1010.1 |
| 20260506001142 | 9 | 295 | 4.8 | 9.7 | 0.00 | 0.00 | 0.00 | 39 | 1010.2 |
| 20260506000639 | 9 | 218 | 1.6 | 8.0 | 0.00 | 0.00 | 0.00 | 40 | 1009.9 |
| 20260506000136 | 9 | 289 | 6.4 | 9.7 | 0.00 | 0.00 | 0.00 | 39 | 1010.0 |
| 20260505235635 | 9 | 269 | 4.8 | 11.3 | 0.00 | 0.00 | 0.00 | 39 | 1009.8 |
| 20260505235132 | 9 | 238 | 3.2 | 8.0 | 0.00 | 0.00 | 0.00 | 38 | 1010.0 |
| 20260505234628 | 9 | 269 | 1.6 | 8.0 | 0.00 | 0.00 | 0.00 | 38 | 1009.9 |
| 20260505234125 | 10 | 298 | 9.7 | 24.1 | 0.00 | 0.00 | 0.00 | 38 | 1010.0 |
| 20260505233623 | 10 | 251 | 6.4 | 12.9 | 0.00 | 0.00 | 0.00 | 37 | 1009.9 |
| 20260505233120 | 10 | 304 | 6.4 | 9.7 | 0.00 | 0.00 | 0.00 | 37 | 1009.8 |
| 20260505232617 | 10 | 280 | 4.8 | 8.0 | 0.00 | 0.00 | 0.00 | 37 | 1009.8 |
| 20260505232115 | 10 | 225 | 4.8 | 8.0 | 0.00 | 0.00 | 0.00 | 38 | 1010.0 |
| 20260505231612 | 10 | 244 | 8.0 | 11.3 | 0.00 | 0.00 | 0.00 | 38 | 1010.0 |
| 20260505231110 | 10 | 214 | 3.2 | 4.8 | 0.00 | 0.00 | 0.00 | 39 | 1010.1 |
| 20260505230608 | 10 | 284 | 6.4 | 8.0 | 0.00 | 0.00 | 0.00 | 39 | 1009.8 |
| 20260505230104 | 10 | 279 | 4.8 | 11.3 | 0.00 | 0.00 | 0.00 | 39 | 1009.8 |
| 20260505225600 | 10 | 322 | 4.8 | 11.3 | 0.00 | 0.00 | 0.00 | 38 | 1009.9 |
| 20260505225057 | 10 | 268 | 3.2 | 14.5 | 0.00 | 0.00 | 0.00 | 38 | 1010.0 |
| 20260505224554 | 10 | 289 | 4.8 | 9.7 | 0.00 | 0.00 | 0.00 | 39 | 1010.0 |
| 20260505224051 | 10 | 239 | 4.8 | 9.7 | 0.00 | 0.00 | 0.00 | 39 | 1009.8 |
| 20260505223548 | 10 | 241 | 6.4 | 9.7 | 0.00 | 0.00 | 0.00 | 39 | 1009.7 |
| 20260505223044 | 10 | 214 | 3.2 | 9.7 | 0.00 | 0.00 | 0.00 | 38 | 1010.0 |
| 20260505222540 | 10 | 346 | 8.0 | 16.1 | 0.00 | 0.00 | 0.00 | 38 | 1009.6 |
| 20260505222037 | 10 | 270 | 8.0 | 12.9 | 0.00 | 0.00 | 0.00 | 38 | 1009.7 |
| 20260505221534 | 10 | 295 | 8.0 | 12.9 | 0.00 | 0.00 | 0.00 | 38 | 1009.6 |
| 20260505221030 | 10 | 254 | 4.8 | 9.7 | 0.00 | 0.00 | 0.00 | 38 | 1009.8 |
| 20260505220528 | 10 | 18 | 4.8 | 12.9 | 0.00 | 0.00 | 0.00 | 38 | 1009.8 |
| 20260505220026 | 10 | 307 | 4.8 | 14.5 | 0.00 | 0.00 | 0.00 | 38 | 1009.8 |
| 20260505215524 | 10 | 330 | 8.0 | 12.9 | 0.00 | 0.00 | 0.00 | 37 | 1009.8 |
| 20260505215021 | 10 | 299 | 8.0 | 12.9 | 0.00 | 0.00 | 0.00 | 37 | 1009.7 |
| 20260505214519 | 11 | 279 | 6.4 | 8.0 | 0.00 | 0.00 | 0.00 | 36 | 1009.9 |
| 20260505214015 | 10 | 222 | 3.2 | 9.7 | 0.00 | 0.00 | 0.00 | 38 | 1009.8 |
| 20260505213513 | 10 | 267 | 3.2 | 9.7 | 0.00 | 0.00 | 0.00 | 39 | 1009.8 |
| 20260505213009 | 10 | 250 | 6.4 | 11.3 | 0.00 | 0.00 | 0.00 | 38 | 1009.8 |
| 20260505212506 | 10 | 272 | 6.4 | 9.7 | 0.00 | 0.00 | 0.00 | 37 | 1009.9 |
| 20260505212003 | 10 | 300 | 4.8 | 9.7 | 0.00 | 0.00 | 0.00 | 38 | 1009.9 |
| 20260505211501 | 10 | 266 | 9.7 | 16.1 | 0.00 | 0.00 | 0.00 | 37 | 1010.1 |
| 20260505210956 | 10 | 248 | 3.2 | 8.0 | 0.00 | 0.00 | 0.00 | 38 | 1010.0 |
| 20260505210453 | 10 | 285 | 6.4 | 9.7 | 0.00 | 0.00 | 0.00 | 38 | 1010.0 |
| 20260505205950 | 10 | 319 | 4.8 | 11.3 | 0.00 | 0.00 | 0.00 | 39 | 1010.2 |
| 20260505205449 | 9 | 243 | 3.2 | 12.9 | 0.00 | 0.00 | 0.00 | 39 | 1010.0 |
| 20260505204945 | 9 | 243 | 8.0 | 14.5 | 0.00 | 0.00 | 0.00 | 38 | 1010.1 |
| 20260505204443 | 10 | 214 | 4.8 | 14.5 | 0.00 | 0.00 | 0.00 | 39 | 1010.2 |
| 20260505203940 | 10 | 261 | 1.6 | 9.7 | 0.00 | 0.00 | 0.00 | 39 | 1010.1 |
| 20260505203437 | 10 | 303 | 8.0 | 9.7 | 0.00 | 0.00 | 0.00 | 38 | 1010.0 |
| 20260505202933 | 10 | 298 | 4.8 | 9.7 | 0.00 | 0.00 | 0.00 | 39 | 1010.1 |
| 20260505202429 | 10 | 252 | 3.2 | 4.8 | 0.00 | 0.00 | 0.00 | 38 | 1010.2 |
| 20260505201926 | 10 | 284 | 1.6 | 12.9 | 0.00 | 0.00 | 0.00 | 38 | 1010.2 |
| 20260505201423 | 10 | 228 | 3.2 | 4.8 | 0.00 | 0.00 | 0.00 | 39 | 1010.1 |
| 20260505200921 | 10 | 260 | 4.8 | 12.9 | 0.00 | 0.00 | 0.00 | 38 | 1010.1 |
| 20260505200418 | 10 | 266 | 8.0 | 14.5 | 0.00 | 0.00 | 0.00 | 37 | 1010.3 |
| 20260505195913 | 10 | 192 | 4.8 | 11.3 | 0.00 | 0.00 | 0.00 | 37 | 1010.0 |
| 20260505195411 | 10 | 263 | 8.0 | 12.9 | 0.00 | 0.00 | 0.00 | 37 | 1010.3 |
| 20260505194908 | 10 | 312 | 9.7 | 16.1 | 0.00 | 0.00 | 0.00 | 37 | 1010.3 |
| 20260505194406 | 10 | 304 | 6.4 | 9.7 | 0.00 | 0.00 | 0.00 | 36 | 1010.1 |
| 20260505193905 | 10 | 280 | 4.8 | 12.9 | 0.00 | 0.00 | 0.00 | 38 | 1010.1 |
| 20260505193404 | 9 | 356 | 1.6 | 14.5 | 0.00 | 0.00 | 0.00 | 37 | 1010.1 |
| 20260505192901 | 9 | 249 | 9.7 | 11.3 | 0.00 | 0.00 | 0.00 | 36 | 1010.1 |
| 20260505192359 | 10 | 265 | 6.4 | 14.5 | 0.00 | 0.00 | 0.00 | 36 | 1010.2 |
| 20260505191856 | 10 | 263 | 6.4 | 12.9 | 0.00 | 0.00 | 0.00 | 36 | 1010.1 |
| 20260505191355 | 10 | 335 | 8.0 | 12.9 | 0.00 | 0.00 | 0.00 | 36 | 1010.2 |
| 20260505190851 | 10 | 221 | 4.8 | 12.9 | 0.00 | 0.00 | 0.00 | 36 | 1010.2 |
| 20260505190347 | 9 | 269 | 4.8 | 14.5 | 0.00 | 0.00 | 0.00 | 37 | 1010.1 |
| 20260505185842 | 9 | 298 | 3.2 | 12.9 | 0.00 | 0.00 | 0.00 | 37 | 1010.3 |
| 20260505185339 | 10 | 252 | 3.2 | 12.9 | 0.00 | 0.00 | 0.00 | 36 | 1010.3 |
| 20260505184835 | 10 | 203 | 4.8 | 9.7 | 0.00 | 0.00 | 0.00 | 37 | 1010.1 |
| 20260505184332 | 10 | 169 | 3.2 | 8.0 | 0.00 | 0.00 | 0.00 | 38 | 1010.2 |
| 20260505183829 | 9 | 272 | 4.8 | 11.3 | 0.00 | 0.00 | 0.00 | 37 | 1010.4 |
| 20260505183326 | 10 | 335 | 4.8 | 12.9 | 0.00 | 0.00 | 0.00 | 36 | 1010.4 |
| 20260505182823 | 9 | 280 | 4.8 | 8.0 | 0.00 | 0.00 | 0.00 | 37 | 1010.4 |
| 20260505182320 | 9 | 285 | 11.3 | 16.1 | 0.00 | 0.00 | 0.00 | 35 | 1010.4 |
| 20260505181817 | 9 | 279 | 4.8 | 9.7 | 0.00 | 0.00 | 0.00 | 36 | 1010.4 |
| 20260505181314 | 9 | 290 | 4.8 | 12.9 | 0.00 | 0.00 | 0.00 | 37 | 1010.3 |
| 20260505180810 | 9 | 243 | 4.8 | 14.5 | 0.00 | 0.00 | 0.00 | 36 | 1010.3 |
| 20260505180307 | 10 | 240 | 8.0 | 14.5 | 0.00 | 0.00 | 0.00 | 35 | 1010.3 |
| 20260505175803 | 9 | 248 | 3.2 | 8.0 | 0.00 | 0.00 | 0.00 | 36 | 1010.4 |
| 20260505175300 | 8 | 257 | 4.8 | 8.0 | 0.00 | 0.00 | 0.00 | 35 | 1010.3 |
| 20260505174756 | 8 | 186 | 3.2 | 4.8 | 0.00 | 0.00 | 0.00 | 36 | 1010.4 |
| 20260505174254 | 8 | 290 | 8.0 | 12.9 | 0.00 | 0.00 | 0.00 | 36 | 1010.5 |
| 20260505173749 | 8 | 267 | 3.2 | 8.0 | 0.00 | 0.00 | 0.00 | 37 | 1010.4 |
| 20260505173246 | 8 | 265 | 9.7 | 12.9 | 0.00 | 0.00 | 0.00 | 35 | 1010.5 |
| 20260505172743 | 8 | 228 | 3.2 | 11.3 | 0.00 | 0.00 | 0.00 | 36 | 1010.6 |
| 20260505172240 | 8 | 261 | 4.8 | 11.3 | 0.00 | 0.00 | 0.00 | 35 | 1010.6 |
| 20260505171740 | 8 | 275 | 8.0 | 11.3 | 0.00 | 0.00 | 0.00 | 35 | 1010.6 |
| 20260505171238 | 8 | 295 | 4.8 | 11.3 | 0.00 | 0.00 | 0.00 | 33 | 1010.5 |
| 20260505170734 | 8 | 277 | 6.4 | 9.7 | 0.00 | 0.00 | 0.00 | 35 | 1010.4 |
| 20260505170231 | 9 | 286 | 3.2 | 11.3 | 0.00 | 0.00 | 0.00 | 34 | 1010.4 |
| 20260505165727 | 8 | 323 | 6.4 | 16.1 | 0.00 | 0.00 | 0.00 | 35 | 1010.5 |
| 20260505165223 | 8 | 205 | 6.4 | 12.9 | 0.00 | 0.00 | 0.00 | 35 | 1010.3 |
| 20260505164718 | 8 | 267 | 4.8 | 12.9 | 0.00 | 0.00 | 0.00 | 36 | 1010.4 |
| 20260505164216 | 8 | 319 | 4.8 | 12.9 | 0.00 | 0.00 | 0.00 | 35 | 1010.7 |
| 20260505163714 | 8 | 248 | 0.0 | 9.7 | 0.00 | 0.00 | 0.00 | 36 | 1010.4 |
| 20260505163212 | 8 | 319 | 3.2 | 11.3 | 0.00 | 0.00 | 0.00 | 35 | 1010.6 |
| 20260505162709 | 8 | 1 | 4.8 | 14.5 | 0.00 | 0.00 | 0.00 | 35 | 1010.3 |
| 20260505162206 | 8 | 352 | 9.7 | 16.1 | 0.00 | 0.00 | 0.00 | 35 | 1010.5 |
| 20260505161703 | 8 | 306 | 9.7 | 16.1 | 0.00 | 0.00 | 0.00 | 36 | 1010.4 |
| 20260505161200 | 8 | 336 | 8.0 | 12.9 | 0.00 | 0.00 | 0.00 | 35 | 1010.4 |
| 20260505160658 | 8 | 290 | 8.0 | 17.7 | 0.00 | 0.00 | 0.00 | 35 | 1010.4 |
| 20260505160155 | 8 | 261 | 4.8 | 16.1 | 0.00 | 0.00 | 0.00 | 36 | 1010.4 |
| 20260505153134 | 8 | 244 | 6.4 | 12.9 | 0.00 | 0.00 | 0.00 | 36 | 1010.3 |
| 20260505152631 | 7 | 266 | 4.8 | 11.3 | 0.00 | 0.00 | 0.00 | 38 | 1010.5 |
| 20260505152127 | 7 | 312 | 6.4 | 8.0 | 0.00 | 0.00 | 0.00 | 40 | 1010.5 |
| 20260505151622 | 7 | 179 | 8.0 | 12.9 | 0.00 | 0.00 | 0.00 | 37 | 1010.2 |